Regional Weather Roundup
Issued by NWS Grand Forks, ND

Home | Current Version | Previous Version | Text Only | Print | Product List | Glossary Off
Versions: 1 2 3 4 5 6 7 8 9 10 11 12 13 14 15 16 17 18 19 20 21 22 23 24 25 26 27 28 29 30 31 32 33 34 35 36 37 38 39 40 41 42 43 44 45 46 47 48 49 50

044
ASUS43 KFGF 241210
RWRFGF
PRAIRIE TO PINES  WEATHER ROUNDUP
NATIONAL WEATHER SERVICE EASTERN NORTH DAKOTA/GRAND FORKS ND
700 AM CDT MON APR 24 2017

 **SATELLITE DATA USED TO AUGMENT SKY COVER AT AUTOMATED STATIONS**
 *****  WEATHER ACROSS EASTERN NORTH DAKOTA  *****

CITY           SKY/WX    TMP DP  RH WIND       PRES   REMARKS
GRAND FORKS    CLOUDY    36  33  89 NE12      29.73F
6HR MIN TEMP:  34; 6HR MAX TEMP:  36;

GRAND FRKS AFB CLOUDY    33  31  92 E12       29.74F WCI  25
DEVILS LAKE    CLOUDY    31  28  89 E18G25    29.73F WCI  19
6HR MIN TEMP:  29; 6HR MAX TEMP:  31;

FARGO          MOCLDY    37  31  78 NE5       29.66S
WAHPETON ARPT  FAIR      41  32  70 E15       29.62F
$$

 ***** WEATHER ACROSS CENTRAL AND WESTERN NORTH DAKOTA  *****

CITY           SKY/WX    TMP DP  RH WIND       PRES   REMARKS
BISMARCK       LGT RAIN  33  32  96 NE15      29.66R WCI  23
6HR MIN TEMP:  33; 6HR MAX TEMP:  34; 6HR PCP:  0.05;

MINOT          CLOUDY    30  26  85 N10       29.73S WCI  21
6HR MIN TEMP:  30; 6HR MAX TEMP:  31; 6HR PCP:  0.04;

JAMESTOWN      LGT RAIN  33  31  92 NE15      29.63R WCI  23
6HR MIN TEMP:  32; 6HR MAX TEMP:  33; 6HR PCP:  0.03;

MINOT AFB      CLOUDY    29  25  85 NE9       29.73F WCI  20
GARRISON         N/A     29  28  96 E12       29.69S WCI  19
WILLISTON      LGT SNOW  31  29  92 NE5       29.72S FOG
6HR MIN TEMP:  31; 6HR MAX TEMP:  32; 6HR PCP:  0.09;

DICKINSON      CLOUDY    28  27  96 NE9       29.64S FOG     WCI  19
6HR MIN TEMP:  28; 6HR MAX TEMP:  29;

HETTINGER      FRZ RAIN  31  29  92 N8        29.65S FOG     WCI  23
6HR MIN TEMP:  31; 6HR MAX TEMP:  32; 6HR PCP:  0.08;

$$

 *****  OTHER AIRPORT OBSERVATIONS IN OUR AREA  *****

CITY           SKY/WX    TMP DP  RH WIND       PRES   REMARKS
WALHALLA       NOT AVBL
GRAFTON AIRPOR CLOUDY    34  30  86 NE14      29.80S WCI  24
VALLEY CITY AR DRIZZLE   32  32 100 NE10      29.68R WCI  24
CANDO          NOT AVBL
CAVALIER APRT  CLOUDY    34  27  75 E14       29.82R WCI  24
GWINNER        SUNNY     37  36  93 MISG      29.59F
SHEYENNE NWR     N/A     36  31  82 NE7       29.95S
ROLLA          CLOUDY    28  19  69 NE17G23   29.77F WCI  16
 ***** THE ABOVE OBSERVATIONS ARE NON NWS ARE NOT QUALITY
       CONTROLLED AND MAY MIS-REPORT RAIN FOR SNOW...
$$

  *****  WEATHER ACROSS NORTHERN MINNESOTA  *****

CITY           SKY/WX    TMP DP  RH WIND       PRES   REMARKS
FLAG ISLAND    LGT SNOW  32  23  69 E14G21    29.90S WCI  22
WARROAD        CLOUDY    34  28  80 E22       29.88S WCI  22
ROSEAU         CLOUDY    34  28  80 E21       29.85S WCI  22
HALLOCK        CLOUDY    36  28  75 E18       29.80F
THF RVR FALLS  CLOUDY    33  30  88 E17       29.76F WCI  22
6HR MIN TEMP:  32; 6HR MAX TEMP:  33; 6HR PCP: TRACE;

BAUDETTE       CLOUDY    32  29  88 E14       29.86F WCI  22
6HR MIN TEMP:  31; 6HR MAX TEMP:  33; 6HR PCP: TRACE;

WASKISH        MOCLDY    30  28  93 E14G23    29.83S WCI  20
CROOKSTON      FAIR      36  30  80 E16G24    29.72F
STEPHEN NDAWN    N/A     34  30  86 E15         N/A  WCI  24
GREENBUSH NDAW   N/A     32  28  86 E16         N/A  WCI  21
$$
  *****  WEATHER ACROSS CENTRAL AND WEST MINNESOTA  *****

CITY           SKY/WX    TMP DP  RH WIND       PRES   REMARKS
FOSSTON        MOCLDY    32  27  80 E12G18    29.73S WCI  23
BEMIDJI        FAIR      32  27  81 E14G24    29.76F WCI  22
PARK RAPIDS    CLOUDY    34  25  69 E12       29.72F
6HR MIN TEMP:  33; 6HR MAX TEMP:  34;

ELBOW LAKE     FAIR      41  35  79 SE15      29.65S
6HR MIN TEMP:  37; 6HR MAX TEMP:  41;

WADENA         FAIR      34  28  80 E10       29.71F
DETROIT LAKES  FAIR      36  30  80 SE10G16   29.68F
MOORHEAD       FAIR      37  30  75 E8        29.66R
FERGUS FALLS   FAIR      39  32  75 E10G16    29.65R
MORRIS MN      FAIR      45  36  70 SE16      29.63F
STAPLES        FAIR      34  28  80 E7        29.73F
$$
  *****  WEATHER ELSEWHERE ACROSS MINNESOTA  *****

CITY           SKY/WX    TMP DP  RH WIND       PRES   REMARKS
DULUTH         MOCLDY    32  26  78 E21G29    29.89S WCI  20
6HR MIN TEMP:  31; 6HR MAX TEMP:  33;

INTRNTL FALLS  CLOUDY    31  26  82 E15G24    29.90F WCI  20
6HR MIN TEMP:  31; 6HR MAX TEMP:  33; 6HR PCP:  0.08;

ELY            FAIR      28  23  80 E8        29.94S WCI  20
CLOQUET        FAIR      34  27  75 E12G22    29.87F
WHEATON        FAIR      45  36  70 SE15      29.62F
BRAINERD       FAIR      36  31  82 VRB6      29.77F
6HR MIN TEMP:  33; 6HR MAX TEMP:  36;

HIBBING        FAIR      30  25  81 E15G23    29.87F WCI  19
6HR MIN TEMP:  29; 6HR MAX TEMP:  31;

ALEXANDRIA     FAIR      38  33  82 SE16      29.69F
6HR MIN TEMP:  35; 6HR MAX TEMP:  38;

SAINT CLOUD    FAIR      37  34  89 E7        29.77F
6HR MIN TEMP:  36; 6HR MAX TEMP:  37;

MINNEAPOLIS    CLOUDY    55  33  43 S9        29.81S
6HR MIN TEMP:  49; 6HR MAX TEMP:  57;

$$

  *****  WEATHER ACROSS SOUTH DAKOTA  *****

CITY           SKY/WX    TMP DP  RH WIND       PRES   REMARKS
SIOUX FALLS    CLOUDY    53  36  52 S20G28    29.65F
6HR MIN TEMP:  53; 6HR MAX TEMP:  57;

BROOKINGS      FAIR      50  35  56 S15       29.64F
WATERTOWN      FAIR      48  36  63 S13       29.60F
6HR MIN TEMP:  48; 6HR MAX TEMP:  52;

HURON          FAIR      52  38  58 S14G23    29.55F
6HR MIN TEMP:  52; 6HR MAX TEMP:  57;

SISSETON         N/A     41  39  93 E3        29.57F
ABERDEEN       MOCLDY    40  36  86 N9        29.55S
6HR MIN TEMP:  40; 6HR MAX TEMP:  45;

MITCHELL       FAIR      53  38  56 S14       29.57F
PIERRE         MOCLDY    39  36  89 NW14      29.51R
6HR MIN TEMP:  39; 6HR MAX TEMP:  46; 6HR PCP: TRACE;

MOBRIDGE       CLOUDY    38  34  85 N12       29.55R
RAPID CITY     FOG       37  36  96 N16       29.60R VSB 1/4
6HR MIN TEMP:  38; 6HR MAX TEMP:  44;

$$

  *****  SOME WEATHER IN NEARBY STATES *****

CITY           SKY/WX    TMP DP  RH WIND       PRES   REMARKS
GLASGOW MT     CLOUDY    32  30  92 E8        29.69S WCI  25
6HR MIN TEMP:  32; 6HR MAX TEMP:  32; 6HR PCP:  0.01;

GREAT FALLS MT FAIR      36  33  89 SW8       29.65F
6HR MIN TEMP:  36; 6HR MAX TEMP:  42;

CHEYENNE WY    FAIR      42  34  73 NW8       29.71S
6HR MIN TEMP:  42; 6HR MAX TEMP:  52;

SCOTTSBLUFF NE FAIR      52  39  61 W10       29.61S
6HR MIN TEMP:  44; 6HR MAX TEMP:  55;

OMAHA NE       MOCLDY    54  36  50 S17       29.79R
6HR MIN TEMP:  53; 6HR MAX TEMP:  57;

DES MOINES IA  CLOUDY    50  34  54 SE9       29.88S
6HR MIN TEMP:  49; 6HR MAX TEMP:  53;

DAVENPORT IA   FAIR      46  31  55 E7        29.98R
6HR MIN TEMP:  43; 6HR MAX TEMP:  52;

CHICAGO IL     FAIR      42  38  85 N5        30.02S
6HR MIN TEMP:  40; 6HR MAX TEMP:  43;

EAU CLAIRE WI  FAIR      40  34  79 SE8       29.90S
6HR MIN TEMP:  39; 6HR MAX TEMP:  50;

LA CROSSE WI   FAIR      46  39  76 E8        29.92S
6HR MIN TEMP:  45; 6HR MAX TEMP:  57;

$$

  *****  SOME NATIONAL WEATHER *****

CITY           SKY/WX    TMP DP  RH WIND       PRES   REMARKS
LA GUARDIA NY  PTSUNNY   51  46  83 S5        30.17R
6HR MIN TEMP:  48; 6HR MAX TEMP:  52;

RALEIGH NC     LGT RAIN  54  53  97 NE8       29.89S FOG
6HR MIN TEMP:  53; 6HR MAX TEMP:  54; 6HR PCP:  0.27;

ATLANTA GA     DRIZZLE   53  51  93 N9        29.76R FOG
6HR MIN TEMP:  52; 6HR MAX TEMP:  54; 6HR PCP: TRACE;

NEW ORLEANS LA FAIR      55  52  89 W9        29.92R
6HR MIN TEMP:  52; 6HR MAX TEMP:  55;

OKLAHOMA CITY  FAIR      44  39  82 SE7       29.91F
6HR MIN TEMP:  42; 6HR MAX TEMP:  47;

ALBUQUERQUE NM FAIR      49  29  46 SE7       29.90S
6HR MIN TEMP:  49; 6HR MAX TEMP:  62;

SALT LAKE CITY MOCLDY    51  39  63 SE10      29.71F
6HR MIN TEMP:  49; 6HR MAX TEMP:  53; 6HR PCP: TRACE;

LOS ANGELES CA MOCLDY    59  52  77 N3        29.88R
6HR MIN TEMP:  58; 6HR M



USA.gov is the U.S. government's official web portal to all federal, state and local government web resources and services.